Home > Weather > Oldenburg > Past weeks

Flag for Germany Past Weather in Oldenburg, Lower Saxony, Germany — Yesterday and Last 2 Weeks

Now
70 °F

Scattered clouds.


Feels Like: 70 °F
Forecast: 56 / 70 °F
Wind: 8 mph from East

Location: Bremen Airport

Current Time: May 28, 2016 at 2:05:18 PM

Latest Report: May 28, 2016 at 1:20 PM


Visibility: N/A

Pressure: 29.95 "Hg

Humidity: 57%

Dew Point: 54 °F

Location of OldenburgLocation

Past Weather in Oldenburg — Graph

°F

Oldenburg Temperature Yesterday

Maximum temperature yesterday: 70 °F (at 4:20 PM)
Minimum temperature yesterday: 46 °F (at 4:50 AM)
Average temperature yesterday: 59 °F

High & Low Weather Summary for the Past Weeks

 TemperatureHumidityPressure
High79 °F (May 22, 1:50 PM)100% (May 16, 4:50 AM)30.07 "Hg (May 16, 4:50 AM)
Low37 °F (May 16, 4:50 AM)31% (May 13, 2:20 PM)29.65 "Hg (May 13, 1:20 PM)
Average56 °F77%29.92 "Hg
* Reported May 13 1:20 PM — May 28 1:20 PM, Oldenburg, Weather by CustomWeather, © 2016

Note: Actual official high and low records may vary slightly from our data, if they occured in-between our weather recording intervals... More about our weather records

Advertising

Oldenburg Weather History for the Previous 24 Hours

Scroll right to see more
 ConditionsComfort  
Time TempWeatherWind HumidityBarometerVisibility
1:20 PM
Sat, May 28
70 °FScattered clouds.8 mph57%29.95 "HgN/A
12:20 PM68 °FScattered clouds.6 mph64%29.98 "HgN/A
11:50 AM68 °FScattered clouds.7 mph64%29.98 "HgN/A
11:20 AM66 °FSunny.2 mph68%29.98 "Hg10 mi
10:50 AM66 °FPassing clouds.5 mph73%29.98 "HgN/A
10:20 AM64 °FPassing clouds.3 mph73%29.98 "HgN/A
9:50 AM63 °FPassing clouds.3 mph77%29.98 "HgN/A
9:20 AM61 °FPassing clouds.3 mph83%29.98 "HgN/A
8:50 AM59 °FSunny.2 mph88%30.01 "Hg10 mi
8:20 AM59 °FSunny.5 mph82%30.01 "Hg10 mi
7:50 AM57 °FSunny.3 mph88%30.01 "Hg10 mi
7:20 AM57 °FSunny.5 mph88%30.01 "Hg10 mi
6:50 AM57 °FSunny.5 mph88%30.01 "Hg10 mi
6:20 AM57 °FSunny.5 mph88%30.01 "Hg10 mi
5:50 AM57 °FClear.5 mph88%30.01 "Hg10 mi
5:20 AM57 °FClear.7 mph88%30.01 "Hg10 mi
4:50 AM57 °FClear.7 mph88%30.01 "Hg5 mi
4:20 AM57 °FClear.8 mph88%30.01 "Hg10 mi
3:50 AM57 °FPassing clouds.9 mph88%30.01 "HgN/A
3:20 AM57 °FPartly cloudy.8 mph94%30.01 "HgN/A
2:50 AM57 °FClear.6 mph94%30.01 "Hg10 mi
2:20 AM57 °FCool.8 mph88%30.01 "HgN/A
1:50 AM57 °FClear.8 mph94%30.01 "Hg10 mi
1:20 AM57 °FClear.7 mph88%30.01 "Hg10 mi
12:50 AM59 °FClear.7 mph82%30.01 "Hg10 mi
12:20 AM59 °FPartly cloudy.7 mph88%30.01 "HgN/A
11:50 PM
Fri, May 27
61 °FPartly cloudy.7 mph83%30.01 "HgN/A
11:20 PM61 °FPassing clouds.7 mph83%30.04 "HgN/A
10:50 PM61 °FClear.7 mph83%30.04 "Hg10 mi
10:20 PM61 °FSunny.8 mph77%30.04 "Hg10 mi
9:50 PM63 °FSunny.8 mph73%30.01 "Hg10 mi
9:20 PM63 °FSunny.8 mph73%30.01 "Hg10 mi
8:50 PM64 °FSunny.8 mph68%30.01 "Hg10 mi
8:20 PM66 °FSunny.7 mph64%30.01 "Hg10 mi
7:50 PM66 °FPartly sunny.6 mph64%30.01 "HgN/A
7:20 PM68 °FPartly sunny.7 mph56%30.01 "HgN/A
6:50 PM68 °FPartly sunny.7 mph60%30.01 "HgN/A
6:20 PM70 °FPartly sunny.6 mph50%30.01 "HgN/A
5:50 PM68 °FPartly sunny.8 mph56%30.01 "HgN/A
5:20 PM68 °FBroken clouds.5 mph53%30.01 "HgN/A
4:50 PM68 °FBroken clouds.6 mph53%30.01 "HgN/A
4:20 PM70 °FScattered clouds.6 mph53%30.01 "HgN/A
3:50 PM68 °FScattered clouds.6 mph60%30.04 "HgN/A
3:20 PM66 °FScattered clouds.6 mph64%30.04 "HgN/A
2:50 PM68 °FScattered clouds.5 mph60%30.04 "HgN/A
2:20 PM66 °FScattered clouds.6 mph60%30.04 "HgN/A
Weather by CustomWeather, © 2016

See weather overviewHow to use our weather pages